Regional Weather Roundup
Issued by NWS Green Bay, WI

Home | Current Version | Previous Version | Graphics & Text | Print | Product List | Glossary Off
Versions: 1 2 3 4 5 6 7 8 9 10 11 12 13 14 15 16 17 18 19 20 21 22 23 24 25 26 27 28 29 30 31 32 33 34 35 36 37 38 39 40 41 42 43 44 45 46 47 48 49 50

000
ASUS43 KGRB 202011
RWRGRB

NORTH-CENTRAL AND NORTHEAST WISCONSIN REGIONAL WEATHER ROUNDUP
NATIONAL WEATHER SERVICE GREEN BAY WI
200 PM CST MON FEB 20 2017

WIZ005-009-010>012-018-019-202100-
NORTH CENTRAL WISCONSIN

CITY           SKY/WX    TMP DP  RH WIND       PRES   REMARKS
IRONWOOD       CLOUDY    51  40  65 SE14G22   29.79F
MANITOWISH WTR CLOUDY    48  39  70 SE12G20   29.84F
ARBOR VITAE    CLOUDY    52  40  64 SE12G18   29.84F
EAGLE RIVER    MOSUNNY   50  36  58 SE12G24   29.88F
LAND O LAKES   MOSUNNY   52  37  56 SE14G24   29.89F
RHINELANDER    CLOUDY    51  40  65 SE15G31   29.88F
PHILLIPS       LGT RAIN  48  41  77 SE10G17   29.81F
ANTIGO         CLOUDY    44  38  80 SE20      29.93F
TOMAHAWK       CLOUDY    49  39  69 SE10G17   29.86F
MERRILL        NOT AVBL
$$

WIZ013-073-202100-
NORTHEAST WISCONSIN

CITY           SKY/WX    TMP DP  RH WIND       PRES   REMARKS
IRON MOUNTAIN  MOSUNNY   44  30  57 SE12      29.98F
MARINETTE      MOSUNNY   44  33  65 E9        30.03F
OCONTO         MOSUNNY   48  34  58 SE12      30.01F
$$

WIZ017-030-035>037-045-202100-
CENTRAL WISCONSIN

CITY           SKY/WX    TMP DP  RH WIND       PRES   REMARKS
MEDFORD        CLOUDY    46  40  80 SE13      29.82F
WAUSAU         CLOUDY    47  40  76 SE15      29.87F
MOSINEE        CLOUDY    48  43  81 SE13      29.89F
MARSHFIELD     CLOUDY    47  40  76 SE14      29.82F
WISC RAPIDS    CLOUDY    56  49  77 SE12G20   29.87F
STEVENS POINT  CLOUDY    48  42  78 E10G16    29.90F
WAUPACA        CLOUDY    55  44  65 SE13G18   29.94F
SHAWANO        CLOUDY    52  42  70 SE9G17    29.97F
CLINTONVILLE   CLOUDY    50  41  71 SE12      29.96F
WAUTOMA        CLOUDY    58  50  75 SE15      29.91F
$$

WIZ038-039-048-051-202100-
FOX VALLEY

CITY           SKY/WX    TMP DP  RH WIND       PRES   REMARKS
NWS GREEN BAY  CLOUDY    51  44  77 SE14      29.99F
APPLETON       PTSUNNY   52  41  66 SE16      29.95F
OSHKOSH        CLOUDY    53  45  74 SE14      29.95F
FOND DU LAC    CLOUDY    54  44  69 SE18G28   29.95F
$$

WIZ022-050-052-202100-
EAST CENTRAL WISCONSIN

CITY           SKY/WX    TMP DP  RH WIND       PRES   REMARKS
EPHRAIM        FAIR      48  33  56 SE13G18   30.04F
WASHINGTON ISL FAIR      44  33  64 SE12G17   30.06F
STURGEON BAY   CLOUDY    48  34  58 SE14      30.03F
MANITOWOC      CLOUDY    46  35  65 MISG      30.03F
SHEBOYGAN      CLOUDY    46  37  71 SE14      30.04F
$$

LMZ563-521-522-541>543-202100-
LAKESHORE

STATION/POSITION TIME  TEMP    WIND        PRES    VSBY  WAVE
                       AIR SEA DIR/SP/G                  HT/PER
                 (UTC) (F)     (DEG/KT/KT) (MB)    (MI)  (FT/S)
SHEBOYGAN LKSHOR 2000   40     180/ 10/ 11 1017.6F
KEWAUNEE LKSHORE 1948   40     160/  4/  5 1017.2F
NORTHPORT PIER   1940   38     130/  2/  4 1017.9F
SISTER BAY LKSHO 1935   51     130/ 12/ 18   N/A
CHAMBERS ISLAND  1940   47     120/  6/ 12 1017.6F
MENOMINEE LKSHOR 1948   37      60/  7/  7 1016.4F
$$




USA.gov is the U.S. government's official web portal to all federal, state and local government web resources and services.